User: anonymous   Login
Location: Mactaquac Provincial Park
(45.9573°N, 66.8897°W)
Time: 22:27:04
(UTC-03:00)
Language:

Cosmos 1867 - Orbit

View from above orbital plane
View from above orbital plane
View from above satellite
View from above satellite

Ground track
Ground track

The orbit data is extracted from the following two-line orbital elements,

1 18187U 87060A   15109.97779607 -.00000006  00000-0  35699-4 0  9997
2 18187 065.0101 277.4389 0014797 279.9103 080.0311 14.31051602451061
Epoch (UTC): 19 April 2015 23:28:01
Eccentricity: 0.0014797
inclination: 65.0101°
perigee height: 777 km
apogee height: 799 km
right ascension of ascending node: 277.4389°
argument of perigee: 279.9103°
revolutions per day: 14.31051602
mean anomaly at epoch: 80.0311°
orbit number at epoch: 45106

The dashed part of the orbit path shows where the satellite is in the earth's shadow,  

DLR